weather.gov     
National Weather Service

Regional Weather Roundup
NWS Homepage
This page is being discontinued on March 12, 2014.
The same data is available at this site. Please update your bookmarks.
Thank you, and we apologize for the inconvenience.
Please send an email to SR-SRH.Webmaster@noaa.gov with any concerns.


Current Version
Previous Version:    01  02  03  04  05  06  07  08  09  10  11  12  13  14  15  16  17  18  19  20  21  22  23  24  25  26  27  28  29  30  
   31  32  33  34  35  36  37  38  39  40  41  42  43  44  45  46  47  48  49  50  51  52  53  54  
[Printable]
418
ASUS41 KGYX 200510
RWRGYX
WEATHER ROUNDUP FOR MAINE AND NEW HAMPSHIRE
NATIONAL WEATHER SERVICE GRAY ME
1200 AM EST SAT DEC 20 2014

MEZ002-005-006-010-012-015-018-020-021-024-026-027-029-200600-
MAINE

CITY           SKY/WX    TMP DP  RH WIND       PRES   REMARKS
PORTLAND       FAIR      27  19  72 N5        30.15R
SANFORD        CLEAR     21  12  68 CALM      30.13S
BAR HARBOR     CLEAR     25  21  86 N12G17    30.12R WCI  14
WISCASSET      CLEAR     26  18  71 CALM      30.16R
ROCKLAND       CLEAR     28  18  64 N12G23    30.12S WCI  18
FRYEBURG       CLEAR     19  15  84 W5        30.14S
LEWISTONAUBURN CLEAR     21  18  86 CALM      30.13S
AUGUSTA        CLEAR     23  15  71 N7        30.15R
WATERVILLE     CLEAR     23  12  63 N7        30.12R
BANGOR         CLEAR     20  16  84 N3        30.15R
GREENVILLE       N/A     17  14  88 NW15      30.07R WCI   2
MILLINOCKET    CLEAR     16  12  84 W5        30.16R
HOULTON        PTCLDY    14  12  92 NE3       30.12R
PRESQUE ISLE   PTCLDY     5  -2  72 CALM      30.13R
FRENCHVILLE    PTCLDY    13  11  92 NW8       30.12R
CARIBOU        CLEAR     12   9  87 NW9       30.13R
$$

NHZ002-005-008-009-011-012-014-200600-
NEW HAMPSHIRE

CITY           SKY/WX    TMP DP  RH WIND       PRES   REMARKS
PORTSMOUTH     PTCLDY    24  19  81 NW7       30.13R
ROCHESTER      CLEAR     25  19  78 NW7       30.13R
NASHUA         CLEAR     25  20  81 CALM      30.16R
MANCHESTER     CLEAR     26  19  74 NW7       30.14R
CONCORD        CLEAR     23  18  81 NW5       30.16R
LACONIA        FAIR      23  18  80 CALM      30.12
PLYMOUTH       FAIR      23  21  91 W10G16    30.16R WCI  13
BERLIN         CLEAR      6   1  80 CALM      30.15R
WHITEFIELD     CLOUDY    20  15  81 CALM      30.15S
JAFFREY        CLEAR     22  18  85 CALM      30.11R
KEENE          PTCLDY    25  18  74 N7        30.16R
LEBANON        CLOUDY    24  16  71 N7        30.18R
MT WASHINGTON  PTCLDY    23  16  74 NE17        N/A  WCI   9
$$

VTZ005-007-008-200600-
VERMONT

CITY           SKY/WX    TMP DP  RH WIND       PRES   REMARKS
ST JOHNSBURY     N/A     19  14  81 MISG      30.17S
MONTPELIER     CLOUDY    17  13  84 CALM      30.20R
BURLINGTON     PTCLDY    18  13  80 CALM      30.24R
$$

MAZ007-012-024-CTZ003-RIZ002-NYZ038-NYZ072-200600-
SOUTHERN NEW ENGLAND AND NY

CITY           SKY/WX    TMP DP  RH WIND       PRES   REMARKS
BOSTON         CLEAR     29  20  69 NW9       30.15R
WORCESTER      CLEAR     23  18  81 NW6       30.10R
NANTUCKET      CLOUDY    37  27  67 NW12      30.10R
PROVIDENCE     PTCLDY    29  20  69 N6        30.15R
HARTFORD       PTCLDY    27  19  72 N8        30.16R
ALBANY         CLOUDY    27  18  69 NW7       30.22R
NEW YORK CITY  CLOUDY    33  22  63 NW12      30.20R
$$

ANZ081-ANZ082-ANZ150-NHZ014-MEZ023>029-200600-
COASTAL MARINE OBSERVATIONS

STATION/POSITION TIME  TEMP    WIND        PRES    WAVE
                       AIR SEA DIR/SP/G            HT/PER
                 (UTC) (F)     (DEG/KT/KT) (MB)    (FT/S)
MOUNT DESERT ROC 0500   32                 1018.7R
MATINICUS ROCK   0500           20/ 21/ 24 1019.1R
PORTLAND WX BUOY 0450   33 43   20/ 17/ 21 1020.1R   2/ 3
WELLS            0400   28 41  330/  4/  5 1019.7R
ISLE OF SHOALS   0400   31     320/ 12/ 13 1019.5R
JEFFREYS LEDGE   0421      49                N/A     3/ 4
CASHES LEDGE BUO 0450   36 48   10/ 14/ 19 1018.8R   3/ 5
$$

.............KEY..............
   WCI - WIND CHILL
   TC  - TEMPERATURE IN CELSIUS
   VSB - VISIBILITY IN MILES
   HX  - HEAT INDEX
   FAIR- INDICATES FEW OR NO CLOUDS BELOW 12,000 FT, WITH NO
         SIGNIFICANT WEATHER AND/OR OBSTRUCTIONS TO VISIBILITY.






U.S. Dept. of Commerce
NOAA National Weather Service
1325 East West Highway
Silver Spring, MD 20910
E-mail: w-nws.webmaster@noaa.gov
Page last modified: May 16, 2007
NATIONAL WEATHER SERVICE: for Safety, for Work, for Fun - FOR LIFE